Weather in Bridgetown

Barbados     13°04′38″N   59°35′24″W
temp.,
°C
wind,
m/s
gust,
m/s
humid.,
%
clouds,
%
prec.,
mm/h
press.,
hPa
HPBL,
m
1 march, mon
mon123:00+25ne9127465 0.1 10131165
02:00+24ne10127563 0.3 10111045
05:00+24ne911740 0.1 1011924
08:00+25ne911721 0.2 10131273
11:00+26ne1010689 0.1 10141220
14:00+26ne910624 0.1 10111091
17:00+25ne89650 0.0 1011996
20:00+24ne89740 0.0 1012907
2 march, tue
tue223:00+24ne79740 0.0 1013825
02:00+24ene79750 0.0 1012822
05:00+23ene79760 0.0 1011762
08:00+25ene89720 0.0 10131074
11:00+26ene78680 0.0 1014947
14:00+26ene77670 0.0 1012967
17:00+25ene78720 0.0 1012984
20:00+25ene89750 0.0 1014922
3 march, wed
wed323:00+24ene810760 0.0 1015905
02:00+24ene810770 0.0 1013840
05:00+24ene89770 0.0 1013781
08:00+25ene89750 0.0 1015985
11:00+26ene89710 0.0 10161103
14:00+27e89700 0.1 10141013
17:00+26ene79760 0.0 1013915
20:00+25e79790 0.2 1014868
4 march, thu
thu423:00+25e810794 0.1 1015916
02:00+25e810812 0.8 1014798
05:00+25e8108129 0.1 1014787
08:00+26e8107922 0.1 1016888
11:00+27e9107616 0.1 1016964
14:00+27e9107519 0.2 10141013
17:00+26e897531 0.1 1013926
20:00+26e8107729 0.2 1014974
5 march, fri
fri523:00+26e8107718 0.1 1015967
02:00+25e8107710 0.2 1013897
05:00+25e79799 0.0 1012842
08:00+26e10118150 0.4 1014893
11:00+26e9117593 0.0 1015890
14:00+27e897274 0.0 10131040
17:00+26e8107945 0.2 1012873
20:00+26e9117823 0.3 1013809